Location: Unspecified
(40.7945°N, 111.1337°W)
Time: 07:53:32
(UTC-07:00)

ISS - Visible Passes

Search period start: 18 December 2017 00:00
Search period end: 28 December 2017 00:00
Orbit: 402 x 406 km, 51.6° (Epoch: 19 December)

Date Brightness Start Highest point End Pass type
(mag) Time Alt. Az. Time Alt. Az. Time Alt. Az.
18 Dec -0.3 18:16:55 10° WSW 18:18:09 12° SW 18:19:22 10° SSW visible
26 Dec -1.0 06:25:49 10° S 06:28:19 21° SE 06:30:51 10° E visible
27 Dec -0.4 05:35:23 10° SE 05:36:12 11° SE 05:36:59 10° ESE visible
27 Dec -3.9 07:08:56 10° SW 07:12:12 81° NW 07:15:28 10° NE visible
